星链-34907 (STARLINK-34907)

导读

STARLINK-34943是美国于2025年8月28日发射的星链卫星,归属SpaceX星链星座项目。星链计划旨在构建全球卫星互联网通信系统,为全球偏远地区、海洋空域等提供低延迟高速网络服务。该卫星入轨后,将与其他星链卫星组网,进一步完善星链星座的全球覆盖能力,推进项目部署进程,提升卫星互联网服务的覆盖范围与服务质量。

Basic Information
目录编号:
65366
目录名称:
STARLINK-34943
国际标识:
2025-190R
轨道中心:
EARTH
卫星名称:
星链-34907
卫星全名:
星链-34907 (STARLINK-34907)
卫星状态:
在轨 (已飞行289 天)
发射日期:
2025-08-28 UTC
国别 :
美国 (US)
星等 :
--
Orbit Information
数据来源 国际轨道数据 AOE轨道数据
星历时间 2026-06-13T09:29:36+0800
16小时前
查看轨道信息
2026-06-13T01:00:00+0800
1天前
查看轨道信息
半长轴 6840.79km 6840.85km
偏心率 0.0001186 0.0001192
轨道倾角 53.160° 53.159°
近地点辐角 83.679° 91.024°
升交点赤经 84.728° 86.383°
平近点角 276.435° 113.155°
近地点 461.841km 461.897km
远地点 463.465km 463.529km
周期 93.847分钟 93.848分钟
每日圈数 15.344172 15.343969
Detailed Information
固有亮度:
5
最大亮度:
2.5
卫星平台:
Starlink V1.0
覆盖范围:
全球
运营商:
太空探索技术公司
运营商所在国:
美国
制造商(研发单位):
太空探索技术公司
制造商所在国:
美国
使用方式:
暂无
Satellite Introduction
Starlink 计划是 SpaceX 推出的全球卫星互联网项目,通过发射低轨道卫星,为全球尤其是偏远地区提供高速、低延迟的互联网服务。自 2019 年起,Starlink 已部署数千颗卫星,旨在缩小全球数字鸿沟,推动互联网普及。该项目还为军事、航空等行业提供通信支持,带来广泛经济效益。
2D Orbit Map
3D Orbit Map
Orbit Altitude Analysis Chart
Orbit Inclination Analysis Chart
Orbit Comprehensive Analysis Chart
View Comprehensive Chart